"Date","Downloads","Mod Version"
"2024-05-18 22:27:36.003831","10","V1.5.9.0"
"2024-05-18 21:50:36.373309","1","V1.5.8.0"
"2024-05-18 21:22:38.359580","12","V1.5.9.0"
"2024-05-18 20:19:26.230594","12","V1.5.9.0"
"2024-05-18 19:09:37.458090","13","V1.5.9.0"
"2024-05-18 18:02:34.689344","13","V1.5.9.0"
"2024-05-18 16:59:30.400295","10","V1.5.9.0"
"2024-05-18 15:57:06.707619","10","V1.5.9.0"
"2024-05-18 14:48:50.073886","4","V1.5.9.0"
"2024-05-18 13:38:17.292179","10","V1.5.9.0"
"2024-05-18 12:32:47.951151","8","V1.5.9.0"
"2024-05-18 11:29:00.429670","8","V1.5.9.0"
"2024-05-18 10:16:20.287990","9","V1.5.9.0"
"2024-05-18 08:49:56.431304","4","V1.5.9.0"
"2024-05-18 07:30:41.365293","7","V1.5.9.0"
"2024-05-18 06:05:06.487147","6","V1.5.9.0"
"2024-05-18 04:21:59.097334","4","V1.5.9.0"
"2024-05-18 03:01:28.598238","1","V1.5.9.0"
"2024-05-18 01:56:28.848535","10","V1.5.9.0"
"2024-05-18 00:55:16.643564","6","V1.5.9.0"
"2024-05-17 23:48:54.757201","10","V1.5.9.0"
"2024-05-17 22:45:10.544278","4","V1.5.9.0"
"2024-05-17 21:34:41.078902","8","V1.5.9.0"
"2024-05-17 20:49:02.854737","1","V1.5.8.0"
"2024-05-17 20:34:33.356840","7","V1.5.9.0"
"2024-05-17 19:31:26.319109","9","V1.5.9.0"
"2024-05-17 18:15:05.804671","6","V1.5.9.0"
"2024-05-17 17:03:31.856404","11","V1.5.9.0"
"2024-05-17 15:56:55.372787","3","V1.5.9.0"
"2024-05-17 14:48:24.507437","11","V1.5.9.0"
"2024-05-17 13:48:16.918261","4","V1.5.9.0"
"2024-05-17 12:11:03.846559","7","V1.5.9.0"
"2024-05-17 10:52:33.119401","1","V1.5.9.0"
"2024-05-17 09:42:34.291635","5","V1.5.9.0"
"2024-05-17 08:30:37.503357","4","V1.5.9.0"
"2024-05-17 06:40:18.098829","1","V1.5.8.0"
"2024-05-17 06:40:01.786374","5","V1.5.9.0"
"2024-05-17 05:34:19.030376","4","V1.5.9.0"
"2024-05-17 05:18:21.516621","1","V1.5.6.0"
"2024-05-17 04:32:06.028821","4","V1.5.9.0"
"2024-05-17 02:25:01.705631","9","V1.5.9.0"
"2024-05-17 01:11:08.650055","7","V1.5.9.0"
"2024-05-16 23:47:04.833797","4","V1.5.9.0"
"2024-05-16 23:40:34.003075","1","V1.5.6.0"
"2024-05-16 22:43:07.229758","2","V1.5.9.0"
"2024-05-16 21:34:56.357690","7","V1.5.9.0"
"2024-05-16 20:31:28.938776","6","V1.5.9.0"
"2024-05-16 19:21:36.650572","8","V1.5.9.0"
"2024-05-16 18:18:46.257538","9","V1.5.9.0"
"2024-05-16 17:01:32.227174","4","V1.5.9.0"
"2024-05-16 15:41:20.589101","6","V1.5.9.0"
"2024-05-16 14:39:53.752101","3","V1.5.9.0"
"2024-05-16 13:36:11.057829","11","V1.5.9.0"
"2024-05-16 12:05:13.315233","6","V1.5.9.0"
"2024-05-16 10:14:39.662856","6","V1.5.9.0"
"2024-05-16 09:11:23.547196","2","V1.5.9.0"
"2024-05-16 07:51:00.003957","1","V1.5.9.0"
"2024-05-16 05:57:46.928841","5","V1.5.9.0"
"2024-05-16 04:53:52.301623","2","V1.5.9.0"
"2024-05-16 03:49:28.401022","4","V1.5.9.0"
"2024-05-16 01:47:53.922155","2","V1.5.9.0"
"2024-05-16 00:45:11.158244","8","V1.5.9.0"
"2024-05-15 23:38:46.191258","11","V1.5.9.0"
"2024-05-15 22:34:47.334678","6","V1.5.9.0"
"2024-05-15 21:34:07.381425","7","V1.5.9.0"
"2024-05-15 20:34:03.102641","3","V1.5.9.0"
"2024-05-15 19:13:59.275186","14","V1.5.9.0"
"2024-05-15 18:03:24.255498","6","V1.5.9.0"
"2024-05-15 17:01:38.027987","5","V1.5.9.0"
"2024-05-15 15:59:49.631055","5","V1.5.9.0"
"2024-05-15 14:52:14.245998","5","V1.5.9.0"
"2024-05-15 13:05:12.348560","6","V1.5.9.0"
"2024-05-15 11:59:03.640855","3","V1.5.9.0"
"2024-05-15 10:50:15.492510","6","V1.5.9.0"
"2024-05-15 09:31:25.344135","1","V1.5.9.0"
"2024-05-15 08:27:44.224363","5","V1.5.9.0"
"2024-05-15 07:08:50.162703","2","V1.5.9.0"
"2024-05-15 05:40:49.210231","4","V1.5.9.0"
"2024-05-15 04:28:25.638420","6","V1.5.9.0"
"2024-05-15 02:59:04.956900","7","V1.5.9.0"
"2024-05-15 01:53:58.328931","7","V1.5.9.0"
"2024-05-15 00:43:00.641338","5","V1.5.9.0"
"2024-05-14 23:34:42.152384","8","V1.5.9.0"
"2024-05-14 22:34:17.494195","8","V1.5.9.0"
"2024-05-14 21:27:35.980379","6","V1.5.9.0"
"2024-05-14 20:08:43.940190","8","V1.5.9.0"
"2024-05-14 19:02:23.856253","11","V1.5.9.0"
"2024-05-14 17:53:15.352135","10","V1.5.9.0"
"2024-05-14 16:13:57.156138","2","V1.5.9.0"
"2024-05-14 15:04:02.022460","4","V1.5.9.0"
"2024-05-14 13:37:48.193250","7","V1.5.9.0"
"2024-05-14 12:27:47.707576","3","V1.5.9.0"
"2024-05-14 11:06:32.759419","2","V1.5.9.0"
"2024-05-14 09:48:32.829666","3","V1.5.9.0"
"2024-05-14 08:13:42.052499","1","V1.5.9.0"
"2024-05-14 07:12:02.723767","4","V1.5.9.0"
"2024-05-14 05:19:53.053468","3","V1.5.9.0"
"2024-05-14 04:12:19.306235","3","V1.5.9.0"
"2024-05-14 03:01:30.045766","2","V1.5.9.0"
"2024-05-14 01:48:43.785502","3","V1.5.9.0"
"2024-05-14 00:46:03.927948","7","V1.5.9.0"
"2024-05-13 23:44:46.805104","7","V1.5.9.0"
"2024-05-13 22:39:05.874044","8","V1.5.9.0"
"2024-05-13 22:19:17.065596","1","V1.5.8.0"
"2024-05-13 21:13:53.425690","7","V1.5.9.0"
"2024-05-13 20:08:33.169896","7","V1.5.9.0"
"2024-05-13 19:05:39.659345","9","V1.5.9.0"
"2024-05-13 18:02:19.477692","8","V1.5.9.0"
"2024-05-13 16:57:43.700081","4","V1.5.9.0"
"2024-05-13 15:48:36.636094","7","V1.5.9.0"
"2024-05-13 14:35:47.450371","4","V1.5.9.0"
"2024-05-13 13:30:39.013649","6","V1.5.9.0"
"2024-05-13 12:50:19.713209","1","V1.5.8.0"
"2024-05-13 11:59:10.925630","3","V1.5.9.0"
"2024-05-13 10:58:53.283128","8","V1.5.9.0"
"2024-05-13 09:42:45.074069","7","V1.5.9.0"
"2024-05-13 08:22:57.928914","4","V1.5.9.0"
"2024-05-13 07:23:19.913044","1","V1.5.6.0"
"2024-05-13 06:52:38.897191","2","V1.5.9.0"
"2024-05-13 05:46:21.950111","2","V1.5.9.0"
"2024-05-13 04:42:33.751880","4","V1.5.9.0"
"2024-05-13 03:41:40.215919","11","V1.5.9.0"
"2024-05-13 02:40:24.945342","2","V1.5.9.0"
"2024-05-13 01:39:28.799413","5","V1.5.9.0"
"2024-05-13 00:18:56.158152","6","V1.5.9.0"
"2024-05-12 23:04:26.138060","3","V1.5.9.0"
"2024-05-12 22:02:36.959955","6","V1.5.9.0"
"2024-05-12 20:54:27.619793","5","V1.5.9.0"
"2024-05-12 19:46:25.494317","10","V1.5.9.0"
"2024-05-12 18:27:30.171840","1","V1.4.6.0"
"2024-05-12 18:27:25.389311","8","V1.5.9.0"
"2024-05-12 17:27:51.978945","1","V1.5.6.0"
"2024-05-12 17:21:07.629073","7","V1.5.9.0"
"2024-05-12 15:52:54.626161","10","V1.5.9.0"
"2024-05-12 14:52:01.286835","5","V1.5.9.0"
"2024-05-12 13:37:30.396998","9","V1.5.9.0"
"2024-05-12 12:33:48.495783","6","V1.5.9.0"
"2024-05-12 11:32:12.212966","12","V1.5.9.0"
"2024-05-12 10:24:15.367351","5","V1.5.9.0"
"2024-05-12 09:05:29.081498","3","V1.5.9.0"
"2024-05-12 07:49:44.429527","5","V1.5.9.0"
"2024-05-12 05:23:26.215189","3","V1.5.9.0"
"2024-05-12 04:10:15.692247","4","V1.5.9.0"
"2024-05-12 03:08:13.323316","8","V1.5.9.0"
"2024-05-12 01:40:44.625072","3","V1.5.9.0"
"2024-05-12 00:31:19.084248","7","V1.5.9.0"
"2024-05-11 23:14:47.602701","3","V1.5.9.0"
"2024-05-11 22:13:43.998677","9","V1.5.9.0"
"2024-05-11 21:01:10.207917","5","V1.5.9.0"
"2024-05-11 19:50:53.148466","10","V1.5.9.0"
"2024-05-11 18:42:24.778925","7","V1.5.9.0"
"2024-05-11 17:34:08.616966","6","V1.5.9.0"
"2024-05-11 16:23:31.795970","7","V1.5.9.0"
"2024-05-11 15:18:51.669003","4","V1.5.9.0"
"2024-05-11 14:05:52.306015","9","V1.5.9.0"
"2024-05-11 12:37:17.902166","5","V1.5.9.0"
"2024-05-11 11:32:11.050442","4","V1.5.9.0"
"2024-05-11 10:15:19.034022","9","V1.5.9.0"
"2024-05-11 08:44:54.624306","8","V1.5.9.0"
"2024-05-11 07:44:03.360804","6","V1.5.9.0"
"2024-05-11 06:25:12.125641","3","V1.5.9.0"
"2024-05-11 05:19:57.414625","4","V1.5.9.0"
"2024-05-11 04:19:36.119027","4","V1.5.9.0"
"2024-05-11 03:19:07.642644","1","V1.5.9.0"
"2024-05-11 02:12:39.697892","5","V1.5.9.0"
"2024-05-11 01:07:19.212204","5","V1.5.9.0"
"2024-05-10 23:48:24.294785","10","V1.5.9.0"
"2024-05-10 22:46:09.781498","11","V1.5.9.0"
"2024-05-10 21:26:20.013685","6","V1.5.9.0"
"2024-05-10 20:25:58.055217","10","V1.5.9.0"
"2024-05-10 19:24:37.384330","13","V1.5.9.0"
"2024-05-10 18:22:40.138885","10","V1.5.9.0"
"2024-05-10 17:20:46.962022","4","V1.5.9.0"
"2024-05-10 16:16:46.120253","6","V1.5.9.0"
"2024-05-10 15:10:14.065466","1","V1.5.5.0"
"2024-05-10 15:09:05.128483","6","V1.5.9.0"
"2024-05-10 13:57:36.605362","4","V1.5.9.0"
"2024-05-10 12:53:44.280799","10","V1.5.9.0"
"2024-05-10 06:59:36.204626","3","V1.5.9.0"
"2024-05-10 05:34:34.141038","4","V1.5.9.0"
"2024-05-10 04:25:13.898289","8","V1.5.9.0"
"2024-05-10 02:59:50.671289","10","V1.5.9.0"
"2024-05-10 01:49:43.965284","8","V1.5.9.0"
"2024-05-10 00:49:16.780709","7","V1.5.9.0"
"2024-05-09 23:46:36.658739","5","V1.5.9.0"
"2024-05-09 22:43:44.963680","9","V1.5.9.0"
"2024-05-09 20:51:45.128887","6","V1.5.9.0"
"2024-05-09 19:51:36.116687","9","V1.5.9.0"
"2024-05-09 18:49:42.431678","4","V1.5.9.0"
"2024-05-09 17:48:33.431760","11","V1.5.9.0"
"2024-05-09 16:42:57.813120","8","V1.5.9.0"
"2024-05-09 15:40:03.594119","5","V1.5.9.0"
"2024-05-09 14:20:02.289288","14","V1.5.9.0"
"2024-05-09 13:19:55.782687","8","V1.5.9.0"
"2024-05-09 12:08:08.443040","8","V1.5.9.0"
"2024-05-09 11:00:15.935656","12","V1.5.9.0"
"2024-05-09 09:13:07.296903","5","V1.5.9.0"
"2024-05-09 08:03:00.607854","7","V1.5.9.0"
"2024-05-09 07:02:41.704247","2","V1.5.9.0"
"2024-05-09 05:28:59.192161","8","V1.5.9.0"
"2024-05-09 04:19:45.419114","5","V1.5.9.0"
"2024-05-09 03:05:27.425701","11","V1.5.9.0"
"2024-05-09 01:58:04.902661","12","V1.5.9.0"
"2024-05-09 00:57:35.078994","11","V1.5.9.0"
"2024-05-08 23:57:00.743084","10","V1.5.9.0"
"2024-05-08 22:54:45.647715","13","V1.5.9.0"
"2024-05-08 21:51:30.842814","17","V1.5.9.0"
"2024-05-08 20:43:18.632272","13","V1.5.9.0"
"2024-05-08 19:41:13.858538","10","V1.5.9.0"
"2024-05-08 18:40:20.997202","12","V1.5.9.0"
"2024-05-08 17:31:07.005459","7","V1.5.9.0"
"2024-05-08 16:29:43.253407","9","V1.5.9.0"
"2024-05-08 15:12:57.680995","12","V1.5.9.0"
"2024-05-08 13:52:47.562522","9","V1.5.9.0"
"2024-05-08 12:51:33.295969","8","V1.5.9.0"
"2024-05-08 11:46:17.918874","9","V1.5.9.0"
"2024-05-08 10:36:22.832462","4","V1.5.9.0"
"2024-05-08 09:29:05.147025","6","V1.5.9.0"
"2024-05-08 08:24:52.159689","2","V1.5.9.0"
"2024-05-08 06:56:18.006351","4","V1.5.9.0"
"2024-05-08 05:51:55.263528","6","V1.5.9.0"
"2024-05-08 04:25:58.316303","3","V1.5.9.0"
"2024-05-08 03:24:25.690718","6","V1.5.9.0"
"2024-05-08 02:05:20.492385","10","V1.5.9.0"
"2024-05-08 01:04:44.968592","8","V1.5.9.0"
"2024-05-08 00:01:28.283753","14","V1.5.9.0"
"2024-05-07 23:00:59.895885","9","V1.5.9.0"
"2024-05-07 22:18:52.656806","1","V1.5.0.0"
"2024-05-07 22:00:38.932102","12","V1.5.9.0"
"2024-05-07 20:57:47.158374","10","V1.5.9.0"
"2024-05-07 19:50:11.475674","15","V1.5.9.0"
"2024-05-07 18:48:55.230390","13","V1.5.9.0"
"2024-05-07 17:47:50.736557","15","V1.5.9.0"
"2024-05-07 16:47:11.880467","13","V1.5.9.0"
"2024-05-07 15:47:11.860205","11","V1.5.9.0"
"2024-05-07 14:41:55.032561","8","V1.5.9.0"
"2024-05-07 13:39:07.604192","3","V1.5.9.0"
"2024-05-07 12:35:17.642963","7","V1.5.9.0"
"2024-05-07 11:27:25.944833","4","V1.5.9.0"
"2024-05-07 10:14:54.058979","1","V1.4.6.0"
"2024-05-07 09:59:12.915284","1","V1.5.9.0"
"2024-05-07 08:28:15.349597","4","V1.5.9.0"
"2024-05-06 19:40:47.579635","1","V1.5.9.0"
"2024-05-06 13:13:14.929153","3","V1.5.9.0"
"2024-05-06 11:49:26.463392","1","V1.5.9.0"
"2024-05-06 10:29:38.134445","2","V1.5.9.0"
"2024-05-06 08:41:41.415931","2","V1.5.9.0"
"2024-05-06 07:14:28.269104","5","V1.5.9.0"
"2024-05-06 05:45:33.007085","2","V1.5.9.0"
"2024-05-06 04:16:37.916903","3","V1.5.9.0"
"2024-05-06 01:49:31.199245","4","V1.5.9.0"
"2024-05-06 00:40:48.372476","4","V1.5.9.0"
"2024-05-05 23:37:41.423647","3","V1.5.9.0"
"2024-05-05 22:34:41.004906","5","V1.5.9.0"
"2024-05-05 20:55:32.435217","3","V1.5.9.0"
"2024-05-05 19:55:30.598993","8","V1.5.9.0"
"2024-05-05 18:29:21.433053","6","V1.5.9.0"
"2024-05-05 17:03:44.668986","12","V1.5.9.0"
"2024-05-05 15:55:34.880684","6","V1.5.9.0"
"2024-05-05 14:54:21.910557","4","V1.5.9.0"
"2024-05-05 13:47:38.170705","5","V1.5.9.0"
"2024-05-05 12:27:03.957909","5","V1.5.9.0"
"2024-05-05 11:20:57.143500","6","V1.5.9.0"
"2024-05-05 10:53:02.211500","1","V1.5.8.0"
"2024-05-05 09:34:04.435678","2","V1.5.9.0"
"2024-05-05 08:18:09.790477","3","V1.5.9.0"
"2024-05-05 05:16:17.860517","4","V1.5.9.0"
"2024-05-05 04:05:49.614595","4","V1.5.9.0"
"2024-05-05 03:01:34.280882","4","V1.5.9.0"
"2024-05-05 01:05:42.453905","2","V1.5.9.0"
"2024-05-04 23:23:03.986246","5","V1.5.9.0"
"2024-05-04 22:09:15.413681","6","V1.5.9.0"
"2024-05-04 21:08:44.149003","6","V1.5.9.0"
"2024-05-04 20:08:20.201023","2","V1.5.9.0"
"2024-05-04 18:57:51.715518","9","V1.5.9.0"
"2024-05-04 17:52:00.149924","8","V1.5.9.0"
"2024-05-04 16:39:03.582835","6","V1.5.9.0"
"2024-05-04 15:33:43.358964","6","V1.5.9.0"
"2024-05-04 14:26:22.358874","6","V1.5.9.0"
"2024-05-04 13:11:31.084484","3","V1.5.9.0"
"2024-05-04 12:20:31.884239","1","V1.5.6.0"
"2024-05-04 11:41:40.018839","3","V1.5.9.0"
"2024-05-04 10:32:01.109068","3","V1.5.9.0"
"2024-05-04 08:55:03.975097","8","V1.5.9.0"
"2024-05-04 06:34:57.302687","2","V1.5.9.0"
"2024-05-04 05:31:03.367386","4","V1.5.9.0"
"2024-05-04 04:25:56.862255","3","V1.5.9.0"
"2024-05-04 02:54:24.234971","5","V1.5.9.0"
"2024-05-04 01:31:37.533101","2","V1.5.9.0"
"2024-05-03 23:59:23.906997","3","V1.5.9.0"
"2024-05-03 21:48:06.384168","4","V1.5.9.0"
"2024-05-03 20:41:32.845404","5","V1.5.9.0"
"2024-05-03 18:52:40.453143","4","V1.5.9.0"
"2024-05-03 17:13:29.477321","4","V1.5.9.0"
"2024-05-03 15:52:34.713477","5","V1.5.9.0"
"2024-05-03 15:46:23.766810","1","V1.5.6.0"
"2024-05-03 14:46:27.351442","4","V1.5.9.0"
"2024-05-03 13:42:34.755760","4","V1.5.9.0"
"2024-05-03 12:05:23.196094","4","V1.5.9.0"
"2024-05-03 10:59:35.422956","2","V1.5.9.0"
"2024-05-03 09:36:40.998935","2","V1.5.9.0"
"2024-05-03 08:05:59.398680","4","V1.5.9.0"
"2024-05-03 06:42:31.343482","1","V1.5.9.0"
"2024-05-03 05:28:14.671084","2","V1.5.9.0"
"2024-05-03 04:27:01.591744","2","V1.5.9.0"
"2024-05-03 03:26:19.367387","1","V1.5.9.0"
"2024-05-03 02:22:07.744954","3","V1.5.9.0"
"2024-05-03 01:08:41.931423","2","V1.5.9.0"
"2024-05-03 00:03:44.639672","4","V1.5.9.0"
"2024-05-02 23:01:23.367398","2","V1.5.9.0"
"2024-05-02 22:11:45.661720","1","V1.5.6.0"
"2024-05-02 21:55:45.492751","3","V1.5.9.0"
"2024-05-02 19:35:05.685707","3","V1.5.9.0"
"2024-05-02 18:30:09.051935","2","V1.5.9.0"
"2024-05-02 17:28:27.124377","4","V1.5.9.0"
"2024-05-02 16:04:42.014141","1","V1.5.9.0"
"2024-05-02 14:44:09.751053","3","V1.5.9.0"
"2024-05-02 13:35:52.187493","2","V1.5.9.0"
"2024-05-02 12:35:39.255751","1","V1.5.9.0"
"2024-05-02 10:28:38.155460","4","V1.5.9.0"
"2024-05-02 08:36:24.346203","4","V1.5.9.0"
"2024-05-02 07:28:23.570061","1","V1.5.9.0"
"2024-05-02 06:25:03.469063","3","V1.5.9.0"
"2024-05-02 04:29:51.536913","2","V1.5.9.0"
"2024-05-02 01:00:01.032858","2","V1.5.9.0"
"2024-05-01 23:26:42.732027","2","V1.5.9.0"
"2024-05-01 22:12:31.843376","2","V1.5.9.0"
"2024-05-01 21:01:59.937189","2","V1.5.9.0"
"2024-05-01 18:55:40.323257","2","V1.5.9.0"
"2024-05-01 17:43:59.770816","1","V1.5.9.0"
"2024-05-01 17:40:09.953770","1","V1.5.8.0"
"2024-05-01 16:23:02.779812","5","V1.5.9.0"
"2024-05-01 15:14:05.658885","3","V1.5.9.0"
"2024-05-01 13:58:24.639041","2","V1.5.9.0"
"2024-05-01 12:27:46.359349","6","V1.5.9.0"
"2024-05-01 11:23:04.051374","4","V1.5.9.0"
"2024-05-01 09:10:54.040909","4","V1.5.9.0"
"2024-05-01 07:34:01.611801","1","V1.5.9.0"
"2024-05-01 06:26:08.662100","1","V1.5.9.0"
"2024-05-01 05:10:44.934894","1","V1.5.9.0"
"2024-05-01 04:09:26.919081","1","V1.5.9.0"
"2024-05-01 03:01:30.601231","1","V1.5.9.0"
"2024-05-01 01:26:04.689952","2","V1.5.9.0"
"2024-04-30 23:48:30.027410","1","V1.5.9.0"
"2024-04-30 22:46:17.876137","5","V1.5.9.0"
"2024-04-30 21:31:32.439597","2","V1.5.9.0"
"2024-04-30 20:34:46.109073","1","V1.5.6.0"
"2024-04-30 19:53:57.119323","2","V1.5.9.0"
"2024-04-30 18:40:33.371021","2","V1.5.9.0"
"2024-04-30 17:57:05.680058","1","V1.4.6.0"
"2024-04-30 17:38:02.366005","4","V1.5.9.0"
"2024-04-30 16:30:57.240288","6","V1.5.9.0"
"2024-04-30 15:05:46.173392","4","V1.5.9.0"
"2024-04-30 14:05:01.716780","4","V1.5.9.0"
"2024-04-30 12:39:26.421129","1","V1.5.9.0"
"2024-04-30 11:32:39.581275","1","V1.5.9.0"
"2024-04-30 10:32:07.341967","1","V1.5.9.0"
"2024-04-30 09:20:37.755271","3","V1.5.9.0"
"2024-04-30 07:58:22.220200","2","V1.5.9.0"
"2024-04-30 04:24:34.361908","1","V1.5.9.0"
"2024-04-30 02:11:28.588581","2","V1.5.9.0"
"2024-04-30 00:57:11.679996","3","V1.5.9.0"
"2024-04-29 23:23:53.287742","3","V1.5.9.0"
"2024-04-29 22:00:17.511698","2","V1.5.9.0"
"2024-04-29 19:03:52.769749","5","V1.5.9.0"
"2024-04-29 17:07:12.945974","1","V1.5.9.0"
"2024-04-29 14:47:35.025688","2","V1.5.9.0"
"2024-04-29 11:47:49.572318","2","V1.5.9.0"
"2024-04-29 09:15:48.979113","1","V1.5.9.0"
"2024-04-29 04:06:41.917337","2","V1.5.9.0"
"2024-04-29 02:50:51.813363","1","V1.5.9.0"
"2024-04-29 01:27:46.742273","2","V1.5.9.0"
"2024-04-28 23:39:02.245511","4","V1.5.9.0"
"2024-04-28 22:37:39.321911","4","V1.5.9.0"
"2024-04-28 21:29:05.926761","2","V1.5.9.0"
"2024-04-28 18:12:04.788593","2","V1.5.9.0"
"2024-04-28 17:09:22.610646","3","V1.5.9.0"
"2024-04-28 16:02:33.115968","5","V1.5.9.0"
"2024-04-28 14:44:17.946180","2","V1.5.9.0"
"2024-04-28 13:17:08.509959","3","V1.5.9.0"
"2024-04-28 11:37:52.018533","4","V1.5.9.0"
"2024-04-28 10:24:01.839835","2","V1.5.9.0"
"2024-04-28 09:19:45.239111","1","V1.5.9.0"
"2024-04-28 07:52:22.523067","2","V1.5.9.0"
"2024-04-28 06:00:59.577698","1","V1.5.9.0"
"2024-04-28 04:18:58.167748","2","V1.5.9.0"
"2024-04-28 03:17:42.097540","2","V1.5.9.0"
"2024-04-28 02:08:04.681482","2","V1.5.9.0"
"2024-04-27 22:57:03.073889","8","V1.5.9.0"
"2024-04-27 20:31:56.953052","3","V1.5.9.0"
"2024-04-27 18:48:57.971824","5","V1.5.9.0"
"2024-04-27 16:04:24.443319","2","V1.5.9.0"
"2024-04-27 14:37:25.183172","4","V1.5.9.0"
"2024-04-27 13:27:40.647062","4","V1.5.9.0"
"2024-04-27 11:17:45.119173","4","V1.5.9.0"
"2024-04-27 09:52:53.066778","2","V1.5.9.0"
"2024-04-27 08:19:28.341951","3","V1.5.9.0"
"2024-04-27 06:44:12.761992","1","V1.5.9.0"
"2024-04-27 04:50:07.812611","1","V1.5.9.0"
"2024-04-27 02:57:32.858985","2","V1.5.9.0"
"2024-04-27 00:38:50.780863","3","V1.5.9.0"
"2024-04-26 23:20:23.326488","2","V1.5.9.0"
"2024-04-26 21:45:53.702291","1","V1.5.9.0"
"2024-04-26 19:45:57.980919","2","V1.5.9.0"
"2024-04-26 18:15:35.559146","2","V1.5.9.0"
"2024-04-26 16:56:49.343046","2","V1.5.9.0"
"2024-04-26 16:21:07.515504","1","V1.5.8.0"
"2024-04-26 15:11:49.975312","3","V1.5.9.0"
"2024-04-26 13:49:56.032864","5","V1.5.9.0"
"2024-04-26 11:33:55.319118","1","V1.5.9.0"
"2024-04-26 09:41:18.557123","2","V1.5.9.0"
"2024-04-26 07:26:09.431776","1","V1.5.9.0"
"2024-04-26 04:46:55.005444","2","V1.5.9.0"
"2024-04-26 03:44:10.572358","2","V1.5.9.0"
"2024-04-26 00:54:53.881954","1","V1.5.8.0"
"2024-04-26 00:52:30.082876","2","V1.5.9.0"
"2024-04-25 22:29:23.575469","2","V1.5.9.0"
"2024-04-25 20:23:34.148774","1","V1.5.9.0"
"2024-04-25 18:38:16.172359","4","V1.5.9.0"
"2024-04-25 17:27:23.553664","2","V1.5.9.0"
"2024-04-25 16:18:05.470923","2","V1.5.9.0"
"2024-04-25 15:16:46.768039","3","V1.5.9.0"
"2024-04-25 13:55:17.893396","2","V1.5.9.0"
"2024-04-25 12:17:10.162526","1","V1.1.1.0"
"2024-04-25 12:16:59.509810","1","V1.2.0.0"
"2024-04-25 12:16:48.876007","1","V1.3.0.0"
"2024-04-25 12:16:38.012582","1","V1.3.2.0"
"2024-04-25 12:16:27.409529","1","V0.1.3.3"
"2024-04-25 12:16:17.082811","1","V1.3.4.0"
"2024-04-25 12:16:06.858396","1","V1.3.5.0"
"2024-04-25 12:15:56.332953","1","V1.3.6.0"
"2024-04-25 12:15:45.653468","1","V1.4.0.0"
"2024-04-25 12:15:35.287309","1","V1.4.1.0"
"2024-04-25 12:15:24.724106","1","V1.4.2.0"
"2024-04-25 12:15:14.148350","1","V1.4.3.0"
"2024-04-25 12:15:02.356356","1","V1.4.4.0"
"2024-04-25 12:14:51.856445","1","V1.4.5.0"
"2024-04-25 12:14:41.082442","1","V1.4.6.0"
"2024-04-25 12:14:30.375376","1","V1.4.7.0"
"2024-04-25 12:14:18.897253","1","V1.4.8.0"
"2024-04-25 12:14:05.477696","1","V1.4.9.0"
"2024-04-25 12:13:52.132322","1","V1.5.0.0"
"2024-04-25 12:13:41.185573","1","V1.5.1.0"
"2024-04-25 12:13:30.263147","1","V1.5.2.0"
"2024-04-25 12:13:19.555441","1","V1.5.3.0"
"2024-04-25 12:13:08.991774","1","V1.5.4.0"
"2024-04-25 12:12:58.352451","1","V1.5.5.0"
"2024-04-25 12:12:47.553131","1","V1.5.6.0"
"2024-04-25 12:12:36.895300","1","V1.5.7.0"
"2024-04-25 12:12:25.985754","1","V1.5.8.0"
"2024-04-25 11:25:01.563271","4","V1.5.9.0"
"2024-04-25 08:11:36.855990","2","V1.5.9.0"
"2024-04-25 06:22:56.069129","1","V1.5.9.0"
"2024-04-25 05:18:13.019922","1","V1.5.9.0"
"2024-04-25 03:58:23.138373","3","V1.5.9.0"
"2024-04-25 02:13:26.138711","3","V1.5.9.0"
"2024-04-25 00:57:24.614932","2","V1.5.9.0"
"2024-04-24 23:40:31.304958","3","V1.5.9.0"
"2024-04-24 22:02:14.769457","1","V1.5.9.0"
"2024-04-24 20:57:09.081685","2","V1.5.9.0"
"2024-04-24 19:51:32.766672","1","V1.5.6.0"
"2024-04-24 19:51:20.792370","3","V1.5.9.0"
"2024-04-24 18:34:41.349960","2","V1.5.9.0"
"2024-04-24 17:22:52.018055","2","V1.5.9.0"
"2024-04-24 15:41:25.377866","5","V1.5.9.0"
"2024-04-24 14:39:50.551848","2","V1.5.9.0"
"2024-04-24 13:38:21.827167","3","V1.5.9.0"
"2024-04-24 10:14:14.311249","4","V1.5.9.0"
"2024-04-24 06:45:04.330690","4","V1.5.9.0"
"2024-04-24 00:19:37.604814","2","V1.5.9.0"
"2024-04-23 23:02:36.675553","4","V1.5.9.0"
"2024-04-23 22:00:11.884409","1","V1.5.9.0"
"2024-04-23 20:30:52.927472","3","V1.5.9.0"
"2024-04-23 18:34:10.999831","3","V1.5.9.0"
"2024-04-23 16:43:13.811728","4","V1.5.9.0"
"2024-04-23 15:42:44.995557","3","V1.5.9.0"
"2024-04-23 13:44:12.639892","1","V1.5.9.0"
"2024-04-23 12:07:43.767641","3","V1.5.9.0"
"2024-04-23 10:10:50.585918","2","V1.5.9.0"
"2024-04-23 08:02:11.277070","2","V1.5.9.0"
"2024-04-23 06:22:11.806916","1","V1.5.9.0"
"2024-04-23 04:08:09.431860","1","V1.5.9.0"
"2024-04-23 01:56:10.630443","3","V1.5.9.0"
"2024-04-23 00:37:45.243993","4","V1.5.9.0"
"2024-04-23 00:32:04.742222","1","V1.5.8.0"
"2024-04-22 23:05:27.620316","4","V1.5.9.0"
"2024-04-22 21:45:31.014981","2","V1.5.9.0"
"2024-04-22 20:41:34.385390","3","V1.5.9.0"
"2024-04-22 19:27:25.167952","3","V1.5.9.0"
"2024-04-22 18:09:21.070049","2","V1.5.9.0"
"2024-04-22 16:37:51.173122","1","V1.5.9.0"
"2024-04-22 14:26:02.603830","5","V1.5.9.0"
"2024-04-22 12:32:07.161566","4","V1.5.9.0"
"2024-04-22 11:03:15.321246","4","V1.5.9.0"
"2024-04-22 09:31:10.788997","3","V1.5.9.0"
"2024-04-22 05:23:11.209205","2","V1.5.9.0"
"2024-04-22 03:30:36.287814","3","V1.5.9.0"
"2024-04-22 02:24:43.156123","4","V1.5.9.0"
"2024-04-22 00:41:15.125462","1","V1.5.9.0"
"2024-04-21 23:34:11.994932","1","V1.5.9.0"
"2024-04-21 22:26:06.858590","1","V1.5.9.0"
"2024-04-21 21:16:42.699080","1","V1.5.9.0"
"2024-04-21 19:55:52.335659","1","V1.5.9.0"
"2024-04-21 18:54:08.689317","3","V1.5.9.0"
"2024-04-21 16:52:49.492480","4","V1.5.9.0"
"2024-04-21 15:15:27.897303","3","V1.5.9.0"
"2024-04-21 14:10:16.075152","4","V1.5.9.0"
"2024-04-21 12:29:40.731389","4","V1.5.9.0"
"2024-04-21 11:22:44.008771","3","V1.5.9.0"
"2024-04-21 10:20:03.629700","3","V1.5.9.0"
"2024-04-21 08:34:59.164026","3","V1.5.9.0"
"2024-04-21 07:29:06.286193","1","V1.5.9.0"
"2024-04-21 05:04:38.280109","1","V1.5.9.0"
"2024-04-21 04:37:10.388203","1","V1.5.6.0"
"2024-04-21 03:47:58.203020","2","V1.5.9.0"
"2024-04-20 22:24:45.741373","3","V1.5.9.0"
"2024-04-20 19:56:07.427549","5","V1.5.9.0"
"2024-04-20 18:55:00.493559","2","V1.5.9.0"
"2024-04-20 17:41:43.711108","3","V1.5.9.0"
"2024-04-20 16:38:31.006451","2","V1.5.9.0"
"2024-04-20 15:24:23.167537","2","V1.5.9.0"
"2024-04-20 13:40:41.880207","6","V1.5.9.0"
"2024-04-20 12:51:06.536460","1","V1.5.6.0"
"2024-04-20 12:07:19.824188","4","V1.5.9.0"
"2024-04-20 09:53:07.103403","1","V1.5.9.0"
"2024-04-20 08:49:42.509561","3","V1.5.9.0"
"2024-04-20 06:56:21.383001","1","V1.5.8.0"
"2024-04-20 06:40:51.781465","4","V1.5.9.0"
"2024-04-20 05:19:15.142461","2","V1.5.9.0"
"2024-04-20 03:09:18.751786","3","V1.5.9.0"
"2024-04-20 01:57:41.291178","3","V1.5.9.0"
"2024-04-20 00:25:37.750072","2","V1.5.9.0"
"2024-04-19 21:31:08.106049","2","V1.5.9.0"
"2024-04-19 19:43:31.382474","4","V1.5.9.0"
"2024-04-19 18:29:04.560153","2","V1.5.9.0"
"2024-04-19 16:53:24.646816","3","V1.5.9.0"
"2024-04-19 15:45:57.670849","1","V1.5.9.0"
"2024-04-19 14:21:39.653663","2","V1.5.9.0"
"2024-04-19 13:16:10.883219","1","V1.5.9.0"
"2024-04-19 09:55:00.748065","3","V1.5.9.0"
"2024-04-19 07:48:46.991999","2","V1.5.9.0"
"2024-04-19 06:34:11.760842","2","V1.5.9.0"
"2024-04-19 05:31:33.463873","2","V1.5.9.0"